Lowell, ID

1:47 AM MDT on June 27, 2017 (GMT -0600)
Lowell

Weather History for KP69 - September, 2013

Change the Weather History Date:

Thursday, September 26, 2013

  Actual Average Record
Temperature  
Mean Temperature 52 °F -  
Max Temperature 59 °F 69 °F 87 °F (2003)
Min Temperature 46 °F 43 °F 36 °F (2000)
Degree Days  
Heating Degree Days 12    
Growing Degree Days 2 (Base 50)    
Moisture  
Dew Point 47 °F    
Average Humidity 88    
Maximum Humidity 97    
Minimum Humidity 67    
Precipitation  
Precipitation 0.00 in - - ()
Sea Level Pressure  
Sea Level Pressure 29.95 in    
Wind  
Wind Speed 0 mph (NNW)    
Max Wind Speed 4 mph    
Max Gust Speed -    
Averages and records for this station are not official NWS values.
T = Trace of Precipitation, MM = Missing Value Source: NWS Daily Summary

Daily Weather History Graph

Daily Weather History Graph

Search for Another Location

Airport or City:

Trip Planner

Search our weather history database for the weather conditions in past years. The results will help you decide how hot, cold, wet, or windy it might be!

Date:

Astronomy

Sep. 26, 2013 Rise Set
Actual Time 7:34 AM MDT 7:30 PM MDT
Civil Twilight 7:04 AM MDT 8:00 PM MDT
Nautical Twilight 6:29 AM MDT 8:35 PM MDT
Astronomical Twilight 5:54 AM MDT 9:10 PM MDT
Moon No Moon Rise 2:45 PM MDT (9/26)
Length of Visible Light 12h 56m
Length of Day
11h 56m
Waning Gibbous, 54% of the Moon is Illuminated
Sep 26
Waning Gibbous
Sep 26
Last Quarter
Oct 4
New
Oct 11
First Quarter
Oct 18
Full

Hourly Weather History & Observations

Time (MDT) Temp. Windchill Dew Point Humidity Pressure Visibility Wind Dir Wind Speed Gust Speed Precip Events Conditions
12:52 AM 48.9 °F - 46.9 °F 93% 29.84 in - Calm Calm - N/A   Unknown
1:52 AM 48.9 °F - 46.9 °F 93% 29.85 in - Calm Calm - N/A   Unknown
2:52 AM 48.0 °F - 46.9 °F 96% 29.85 in - Calm Calm - N/A   Unknown
3:52 AM 46.9 °F - 46.0 °F 97% 29.87 in - Calm Calm - N/A   Unknown
4:52 AM 46.9 °F - 46.0 °F 97% 29.88 in - Calm Calm - N/A   Unknown
5:52 AM 46.9 °F - 46.0 °F 97% 29.90 in - Calm Calm - N/A   Unknown
6:52 AM 46.9 °F - 46.0 °F 97% 29.91 in - Calm Calm - N/A   Unknown
7:52 AM 46.9 °F - 45.0 °F 93% 29.92 in - Calm Calm - N/A   Unknown
8:52 AM 46.9 °F - 46.0 °F 97% 29.94 in - Calm Calm - N/A   Unknown
9:52 AM 48.9 °F - 46.0 °F 90% 29.95 in - Calm Calm - N/A   Unknown
10:52 AM 52.0 °F - 46.9 °F 83% 29.95 in - Calm Calm - N/A   Unknown
11:52 AM 54.0 °F - 48.0 °F 80% 29.94 in - Calm Calm - N/A   Unknown
12:52 PM 54.0 °F - 48.0 °F 80% 29.95 in - Calm Calm - N/A   Unknown
1:52 PM 55.9 °F - 48.0 °F 75% 29.94 in - Calm Calm - N/A   Unknown
2:52 PM 59.0 °F - 48.0 °F 67% 29.93 in - Calm Calm - N/A   Unknown
3:52 PM 57.0 °F - 51.1 °F 81% 29.94 in - Calm Calm - N/A   Unknown
4:52 PM 57.0 °F - 51.1 °F 81% 29.94 in - Calm Calm - N/A   Unknown
5:52 PM 55.0 °F - 50.0 °F 83% 29.97 in - Calm Calm - N/A   Unknown
6:52 PM 52.0 °F - 48.9 °F 89% 30.00 in - Calm Calm - N/A   Unknown
7:52 PM 51.1 °F - 48.0 °F 89% 30.02 in - Calm Calm - N/A   Unknown
8:52 PM 48.9 °F - 46.9 °F 93% 30.05 in - Calm Calm - N/A   Unknown
9:52 PM 48.0 °F - 45.0 °F 89% 30.06 in - Calm Calm - N/A   Unknown
10:52 PM 46.0 °F 44.8 °F 44.1 °F 93% 30.08 in - NNW 3.5 mph - N/A   Unknown
11:52 PM 46.0 °F 44.8 °F 43.0 °F 89% 30.08 in - NNW 3.5 mph - N/A   Unknown